Location: Sungai Dangang
(2.7500°N, 113.8333°E)
Time: 01:46:32
(UTC+00:00)

Ariane H10+ - Pass Details

Date: 27 September 2021
Orbit: 237 x 7755 km, 6.8° (Epoch: 21 October)

Event Time Altitude Azimuth Distance (km) Brightness Sun altitude
Exits shadow 17:03:00 18° 103° (ESE) 5,134 6.2 -78.1°
Drops below altitude 10° 17:08:05 10° 98° (E) 6,720 6.9 -76.8°
Sets 17:17:25 0° 94° (E) 9,282 7.7 -74.5°
